Flag for Netherlands Weather past 2 weeks in Leerdam, Netherlands

Now
62 °F

Overcast.


Feels Like: 62 °F
Forecast: 47 / 65 °F
Wind: 5 mph from Northwest

Location: De Bilt

Current Time: Aug 20, 2014 at 4:53:15 PM

Latest Report: Aug 20, 2014 at 4:00 PM


Visibility: 28 mi

Pressure: 29.99 "Hg

Humidity: 61%

Dew point: 48 °F

Location of LeerdamLocation

Historic Weather in Leerdam — Graph

°F

Leerdam temperature yesterday

Maximum temperature yesterday: 59 °F (at 11:00 AM)
Minimum temperature yesterday: 49 °F (at 2:00 AM)
Average temperature yesterday: 54 °F

Past Weeks' High & Low Weather Summary

 TemperatureHumidityPressure
High75 °F (Aug 5, 4:00 PM)100% (Aug 6, 1:00 AM)30.10 "Hg (Aug 6, 1:00 AM)
Low48 °F (Aug 20, 5:00 AM)42% (Aug 5, 4:00 PM)29.47 "Hg (Aug 10, 7:00 PM)
Average62 °F82%29.84 "Hg
* Reported Aug 5 3:00 PM — Aug 20 3:00 PM, Leerdam, Weather by CustomWeather, © 2014

Note: Actual official high and low records may vary slightly from our data, if they occured in-between our weather recording intervals... More about our weather records

Advertising

Leerdam weather history for previous 24 hours

 ConditionsComfort  
Time TempWeatherWind HumidityBarometerVisibility
3:00 PM
Aug 20
61 °FPartly sunny.3 mph60%30.00 "Hg25 mi
2:00 PM62 °FOvercast.3 mph54%30.00 "Hg28 mi
1:00 PM62 °FOvercast.5 mph63%30.00 "Hg25 mi
12:00 PM58 °FOvercast.2 mph67%30.00 "Hg25 mi
11:00 AM58 °FRain showers. Overcast.3 mph68%30.00 "Hg22 mi
10:00 AM57 °FPartly sunny.6 mph75%30.00 "Hg25 mi
9:00 AM56 °FRain showers. Overcast.5 mph84%29.98 "Hg19 mi
8:00 AM52 °FSunny.1 mph92%29.97 "Hg12 mi
7:00 AM49 °FPassing clouds.2 mph95%29.97 "Hg17 mi
6:00 AM48 °FClear.2 mph97%29.96 "Hg17 mi
5:00 AM48 °FPassing clouds.2 mph98%29.95 "Hg14 mi
4:00 AM49 °FClear.2 mph98%29.95 "Hg14 mi
3:00 AM49 °FPassing clouds.3 mph97%29.95 "Hg25 mi
2:00 AM52 °FRain showers. Overcast.3 mph91%29.95 "Hg10 mi
1:00 AM52 °FRain showers. Overcast.2 mph91%29.95 "Hg25 mi
12:00 AM51 °FPassing clouds.3 mph89%29.93 "Hg28 mi
11:00 PM
Aug 19
52 °FPassing clouds.2 mph84%29.93 "Hg28 mi
10:00 PM52 °FClear.3 mph86%29.92 "Hg28 mi
9:00 PM54 °FRain showers. Passing clouds.3 mph82%29.90 "Hg25 mi
8:00 PM56 °FPassing clouds.3 mph77%29.89 "Hg28 mi
7:00 PM55 °FRain showers. Overcast.5 mph82%29.88 "Hg19 mi
6:00 PM55 °FOvercast.3 mph85%29.87 "Hg28 mi
5:00 PM58 °FPartly sunny.7 mph68%29.85 "Hg28 mi
4:00 PM57 °FRain showers. Overcast.5 mph79%29.84 "Hg25 mi
Weather by CustomWeather, © 2014

See weather overviewHow to use our weather pages